| time (UTC) | temp F | wind direction | speed knots | gust knots | rain 1hr in | rain 24hr in | rain mn in | humidity % | barometer mb |
| 20260510120232 | 58 | 46 | 0.0 | 0.0 | 0.00 | 0.00 | 0.00 | 97 | 1014.4 |
| 20260510115727 | 57 | 38 | 0.0 | 0.0 | 0.00 | 0.00 | 0.00 | 97 | 1014.3 |
| 20260510115226 | 57 | 32 | 0.0 | 0.0 | 0.00 | 0.00 | 0.00 | 97 | 1014.2 |
| 20260510114720 | 57 | 36 | 0.0 | 0.0 | 0.00 | 0.00 | 0.00 | 97 | 1014.3 |
| 20260510114218 | 56 | 36 | 0.0 | 0.0 | 0.00 | 0.00 | 0.00 | 98 | 1014.3 |
| 20260510113713 | 55 | 36 | 0.0 | 0.0 | 0.00 | 0.00 | 0.00 | 98 | 1014.2 |
| 20260510113210 | 55 | 34 | 0.0 | 0.0 | 0.00 | 0.00 | 0.00 | 98 | 1014.0 |
| 20260510112706 | 54 | 34 | 0.0 | 0.0 | 0.00 | 0.00 | 0.00 | 98 | 1014.0 |
| 20260510112204 | 53 | 34 | 0.0 | 0.0 | 0.00 | 0.00 | 0.00 | 97 | 1013.9 |
| 20260510111659 | 53 | 67 | 0.0 | 0.0 | 0.00 | 0.00 | 0.00 | 98 | 1013.8 |
| 20260510111156 | 52 | 67 | 0.0 | 0.0 | 0.00 | 0.00 | 0.00 | 97 | 1013.8 |
| 20260510110650 | 51 | 27 | 0.0 | 0.0 | 0.00 | 0.00 | 0.00 | 97 | 1013.8 |
| 20260510110149 | 51 | 19 | 0.0 | 0.0 | 0.00 | 0.00 | 0.00 | 97 | 1013.8 |
| 20260510105638 | 50 | 20 | 0.0 | 0.0 | 0.00 | 0.00 | 0.00 | 97 | 1013.5 |
| 20260510105138 | 50 | 32 | 0.0 | 0.0 | 0.00 | 0.00 | 0.00 | 97 | 1013.3 |
| 20260510104635 | 50 | 32 | 0.0 | 0.0 | 0.00 | 0.00 | 0.00 | 97 | 1013.2 |
| 20260510104132 | 50 | 32 | 0.0 | 0.0 | 0.00 | 0.00 | 0.00 | 97 | 1013.1 |
| 20260510103628 | 49 | 50 | 0.0 | 0.0 | 0.00 | 0.00 | 0.00 | 97 | 1013.0 |
| 20260510103124 | 49 | 51 | 0.0 | 0.0 | 0.00 | 0.00 | 0.00 | 97 | 1012.9 |
| 20260510102620 | 49 | 51 | 0.0 | 0.0 | 0.00 | 0.00 | 0.00 | 97 | 1012.9 |
| 20260510102116 | 49 | 51 | 0.0 | 0.0 | 0.00 | 0.00 | 0.00 | 97 | 1012.8 |
| 20260510101614 | 49 | 51 | 0.0 | 0.0 | 0.00 | 0.00 | 0.00 | 97 | 1012.8 |
| 20260510101112 | 49 | 57 | 0.0 | 0.0 | 0.00 | 0.00 | 0.00 | 97 | 1012.8 |
| 20260510100608 | 49 | 57 | 0.0 | 0.0 | 0.00 | 0.00 | 0.00 | 97 | 1012.7 |
| 20260510100106 | 49 | 60 | 0.0 | 0.0 | 0.00 | 0.00 | 0.00 | 97 | 1012.7 |
| 20260510095601 | 50 | 59 | 0.0 | 0.0 | 0.00 | 0.00 | 0.00 | 97 | 1012.8 |
| 20260510095056 | 50 | 59 | 0.0 | 0.0 | 0.00 | 0.00 | 0.00 | 97 | 1012.8 |
| 20260510094555 | 50 | 38 | 0.0 | 0.0 | 0.00 | 0.00 | 0.00 | 97 | 1012.7 |
| 20260510094051 | 50 | 39 | 0.0 | 0.0 | 0.00 | 0.00 | 0.00 | 97 | 1012.9 |
| 20260510093547 | 50 | 38 | 0.0 | 0.0 | 0.00 | 0.00 | 0.00 | 97 | 1012.9 |
| 20260510093044 | 50 | 83 | 0.0 | 0.0 | 0.00 | 0.00 | 0.00 | 97 | 1012.9 |
| 20260510092541 | 50 | 83 | 0.0 | 0.0 | 0.00 | 0.00 | 0.00 | 97 | 1012.9 |
| 20260510092040 | 50 | 84 | 0.0 | 0.0 | 0.00 | 0.00 | 0.00 | 97 | 1012.7 |
| 20260510091538 | 50 | 88 | 0.0 | 0.0 | 0.00 | 0.00 | 0.00 | 97 | 1012.8 |
| 20260510091034 | 50 | 93 | 0.0 | 0.0 | 0.00 | 0.00 | 0.00 | 97 | 1012.5 |
| 20260510090531 | 50 | 79 | 0.0 | 0.0 | 0.00 | 0.00 | 0.00 | 97 | 1012.6 |
| 20260510090027 | 50 | 59 | 0.0 | 0.0 | 0.00 | 0.00 | 0.00 | 97 | 1012.4 |
| 20260510085526 | 50 | 7 | 0.0 | 0.0 | 0.00 | 0.00 | 0.00 | 97 | 1012.3 |
| 20260510085022 | 50 | 26 | 0.0 | 0.0 | 0.00 | 0.00 | 0.00 | 97 | 1012.2 |
| 20260510084520 | 50 | 26 | 0.0 | 0.0 | 0.00 | 0.00 | 0.00 | 97 | 1012.5 |
| 20260510084016 | 50 | 26 | 0.0 | 0.0 | 0.00 | 0.00 | 0.00 | 97 | 1012.4 |
| 20260510083513 | 50 | 26 | 0.0 | 0.0 | 0.00 | 0.00 | 0.00 | 96 | 1012.5 |
| 20260510083009 | 50 | 26 | 0.0 | 0.0 | 0.00 | 0.00 | 0.00 | 97 | 1012.4 |
| 20260510082506 | 50 | 26 | 0.0 | 0.0 | 0.00 | 0.00 | 0.00 | 96 | 1012.3 |
| 20260510082001 | 50 | 26 | 0.0 | 0.0 | 0.00 | 0.00 | 0.00 | 96 | 1012.2 |
| 20260510081456 | 50 | 26 | 0.0 | 0.0 | 0.00 | 0.00 | 0.00 | 96 | 1012.3 |
| 20260510080953 | 50 | 26 | 0.0 | 0.0 | 0.00 | 0.00 | 0.00 | 96 | 1012.1 |
| 20260510080451 | 50 | 26 | 0.0 | 0.0 | 0.00 | 0.00 | 0.00 | 96 | 1012.1 |
| 20260510075949 | 50 | 26 | 0.0 | 0.0 | 0.00 | 0.00 | 0.00 | 96 | 1011.9 |
| 20260510075446 | 50 | 26 | 0.0 | 0.0 | 0.00 | 0.00 | 0.00 | 96 | 1011.8 |
| 20260510074943 | 50 | 26 | 0.0 | 0.0 | 0.00 | 0.00 | 0.00 | 96 | 1011.8 |
| 20260510074440 | 50 | 26 | 0.0 | 0.0 | 0.00 | 0.00 | 0.00 | 96 | 1011.6 |
| 20260510073936 | 50 | 26 | 0.0 | 0.0 | 0.00 | 0.00 | 0.00 | 96 | 1011.6 |
| 20260510073432 | 50 | 26 | 0.0 | 0.0 | 0.00 | 0.00 | 0.00 | 96 | 1011.6 |
| 20260510072928 | 50 | 26 | 0.0 | 0.0 | 0.00 | 0.00 | 0.00 | 96 | 1011.5 |
| 20260510072425 | 50 | 26 | 0.0 | 0.0 | 0.00 | 0.00 | 0.00 | 96 | 1011.6 |
| 20260510071920 | 50 | 26 | 0.0 | 0.0 | 0.00 | 0.00 | 0.00 | 96 | 1011.5 |
| 20260510071417 | 51 | 26 | 0.0 | 0.0 | 0.00 | 0.00 | 0.00 | 96 | 1011.6 |
| 20260510070916 | 51 | 26 | 0.0 | 0.0 | 0.00 | 0.00 | 0.00 | 96 | 1011.4 |
| 20260510070413 | 51 | 26 | 0.0 | 0.0 | 0.00 | 0.00 | 0.00 | 96 | 1011.7 |
| 20260510065908 | 51 | 27 | 0.0 | 0.0 | 0.00 | 0.00 | 0.00 | 96 | 1011.4 |
| 20260510065404 | 51 | 27 | 0.0 | 0.0 | 0.00 | 0.00 | 0.00 | 96 | 1011.3 |
| 20260510064901 | 51 | 27 | 0.0 | 0.0 | 0.00 | 0.00 | 0.00 | 96 | 1011.4 |
| 20260510064359 | 51 | 27 | 0.0 | 0.0 | 0.00 | 0.00 | 0.00 | 96 | 1011.5 |
| 20260510063855 | 51 | 27 | 0.0 | 0.0 | 0.00 | 0.00 | 0.00 | 96 | 1011.2 |
| 20260510063351 | 51 | 26 | 0.0 | 0.0 | 0.00 | 0.00 | 0.00 | 96 | 1011.3 |
| 20260510062848 | 51 | 26 | 0.0 | 0.0 | 0.00 | 0.00 | 0.00 | 96 | 1011.3 |
| 20260510062344 | 51 | 27 | 0.0 | 0.0 | 0.00 | 0.00 | 0.00 | 96 | 1011.5 |
| 20260510061839 | 52 | 27 | 0.0 | 0.0 | 0.00 | 0.00 | 0.00 | 96 | 1011.3 |
| 20260510061336 | 52 | 27 | 0.0 | 0.0 | 0.00 | 0.00 | 0.00 | 95 | 1011.2 |
| 20260510060832 | 52 | 17 | 0.0 | 0.0 | 0.00 | 0.00 | 0.00 | 95 | 1011.1 |
| 20260510060330 | 52 | 13 | 0.0 | 0.0 | 0.00 | 0.00 | 0.00 | 95 | 1011.2 |
| 20260510055827 | 52 | 13 | 0.0 | 0.0 | 0.00 | 0.00 | 0.00 | 95 | 1011.4 |
| 20260510055325 | 52 | 13 | 0.0 | 0.0 | 0.00 | 0.00 | 0.00 | 95 | 1011.4 |
| 20260510054824 | 52 | 13 | 0.0 | 0.0 | 0.00 | 0.00 | 0.00 | 95 | 1011.4 |
| 20260510054320 | 52 | 14 | 0.0 | 0.0 | 0.00 | 0.00 | 0.00 | 95 | 1011.6 |
| 20260510053815 | 53 | 14 | 0.0 | 0.0 | 0.00 | 0.00 | 0.00 | 95 | 1011.4 |
| 20260510053311 | 53 | 14 | 0.0 | 0.0 | 0.00 | 0.00 | 0.00 | 95 | 1011.4 |
| 20260510052808 | 53 | 14 | 0.0 | 0.0 | 0.00 | 0.00 | 0.00 | 95 | 1011.5 |
| 20260510052306 | 53 | 14 | 0.0 | 0.0 | 0.00 | 0.00 | 0.00 | 95 | 1011.5 |
| 20260510051759 | 53 | 14 | 0.0 | 0.0 | 0.00 | 0.00 | 0.00 | 95 | 1011.4 |
| 20260510051256 | 53 | 14 | 0.0 | 0.0 | 0.00 | 0.00 | 0.00 | 95 | 1011.5 |
| 20260510050753 | 53 | 14 | 0.0 | 0.0 | 0.00 | 0.00 | 0.00 | 95 | 1011.4 |
| 20260510050250 | 53 | 14 | 0.0 | 0.0 | 0.00 | 0.00 | 0.00 | 95 | 1011.4 |
| 20260510045747 | 53 | 14 | 0.0 | 0.0 | 0.00 | 0.05 | 0.05 | 94 | 1011.4 |
| 20260510045244 | 54 | 1 | 0.0 | 0.0 | 0.00 | 0.05 | 0.05 | 95 | 1011.5 |
| 20260510044741 | 54 | 1 | 0.0 | 0.0 | 0.00 | 0.05 | 0.05 | 94 | 1011.6 |
| 20260510044238 | 54 | 1 | 0.0 | 0.0 | 0.00 | 0.05 | 0.05 | 94 | 1011.6 |
| 20260510043733 | 54 | 1 | 0.0 | 0.0 | 0.00 | 0.05 | 0.05 | 94 | 1011.5 |
| 20260510043231 | 54 | 1 | 0.0 | 0.0 | 0.00 | 0.05 | 0.05 | 94 | 1011.6 |
| 20260510042728 | 54 | 1 | 0.0 | 0.0 | 0.00 | 0.05 | 0.05 | 94 | 1011.7 |
| 20260510042223 | 54 | 1 | 0.0 | 0.0 | 0.00 | 0.05 | 0.05 | 94 | 1011.6 |
| 20260510041721 | 55 | 1 | 0.0 | 0.0 | 0.00 | 0.05 | 0.05 | 94 | 1011.5 |
| 20260510041218 | 55 | 1 | 0.0 | 0.0 | 0.00 | 0.05 | 0.05 | 94 | 1011.4 |
| 20260510040714 | 55 | 1 | 0.0 | 0.0 | 0.00 | 0.05 | 0.05 | 94 | 1011.5 |
| 20260510040211 | 55 | 1 | 0.0 | 0.0 | 0.00 | 0.05 | 0.05 | 93 | 1011.5 |
| 20260510035707 | 55 | 1 | 0.0 | 0.0 | 0.00 | 0.05 | 0.05 | 93 | 1011.5 |
| 20260510035203 | 55 | 1 | 0.0 | 0.0 | 0.00 | 0.05 | 0.05 | 93 | 1011.5 |
| 20260510034659 | 55 | 1 | 0.0 | 0.0 | 0.00 | 0.05 | 0.05 | 93 | 1011.5 |
| 20260510034156 | 55 | 1 | 0.0 | 0.0 | 0.00 | 0.05 | 0.05 | 93 | 1011.4 |
| 20260510033653 | 55 | 1 | 0.0 | 0.0 | 0.00 | 0.05 | 0.05 | 93 | 1011.4 |
| 20260510033150 | 56 | 1 | 0.0 | 0.0 | 0.00 | 0.05 | 0.05 | 93 | 1011.5 |
| 20260510032647 | 56 | 1 | 0.0 | 0.0 | 0.00 | 0.05 | 0.05 | 93 | 1011.5 |
| 20260510032142 | 56 | 1 | 0.0 | 0.0 | 0.00 | 0.05 | 0.05 | 92 | 1011.2 |
| 20260510031637 | 56 | 1 | 0.0 | 0.0 | 0.00 | 0.05 | 0.05 | 92 | 1011.3 |
| 20260510031134 | 56 | 1 | 0.0 | 0.0 | 0.00 | 0.05 | 0.05 | 92 | 1011.5 |
| 20260510030628 | 56 | 358 | 0.0 | 0.0 | 0.00 | 0.05 | 0.05 | 91 | 1011.3 |
| 20260510030126 | 56 | 358 | 0.0 | 0.0 | 0.00 | 0.05 | 0.05 | 91 | 1011.3 |
| 20260510025623 | 56 | 358 | 0.0 | 0.0 | 0.00 | 0.05 | 0.05 | 91 | 1011.2 |
| 20260510025121 | 56 | 358 | 0.0 | 0.0 | 0.00 | 0.05 | 0.05 | 91 | 1011.2 |
| 20260510024617 | 57 | 358 | 0.0 | 0.0 | 0.00 | 0.05 | 0.05 | 90 | 1011.0 |
| 20260510024114 | 57 | 356 | 0.0 | 0.0 | 0.00 | 0.05 | 0.05 | 90 | 1011.3 |
| 20260510023610 | 57 | 356 | 0.0 | 0.0 | 0.00 | 0.05 | 0.05 | 90 | 1011.3 |
| 20260510023108 | 57 | 356 | 0.0 | 0.0 | 0.00 | 0.05 | 0.05 | 89 | 1011.3 |
| 20260510022607 | 58 | 356 | 0.0 | 0.0 | 0.00 | 0.05 | 0.05 | 89 | 1011.0 |
| 20260510022102 | 58 | 0 | 0.0 | 0.0 | 0.00 | 0.05 | 0.05 | 88 | 1011.2 |
| 20260510021558 | 58 | 0 | 0.0 | 0.0 | 0.00 | 0.05 | 0.05 | 88 | 1011.4 |
| 20260510021055 | 58 | 0 | 0.0 | 0.0 | 0.00 | 0.05 | 0.05 | 87 | 1011.3 |
| 20260510020550 | 59 | 350 | 0.0 | 0.9 | 0.00 | 0.05 | 0.05 | 87 | 1011.3 |
| 20260510020046 | 59 | 6 | 0.0 | 0.0 | 0.00 | 0.05 | 0.05 | 85 | 1011.3 |
| 20260510015542 | 59 | 6 | 0.0 | 0.0 | 0.00 | 0.05 | 0.05 | 85 | 1011.3 |
| 20260510015038 | 60 | 356 | 0.0 | 0.0 | 0.00 | 0.05 | 0.05 | 84 | 1011.0 |
| 20260510014534 | 60 | 9 | 0.0 | 0.9 | 0.00 | 0.05 | 0.05 | 84 | 1011.1 |
| 20260510014031 | 60 | 15 | 0.0 | 0.9 | 0.00 | 0.05 | 0.05 | 84 | 1011.1 |
| 20260510013520 | 60 | 318 | 0.9 | 1.7 | 0.00 | 0.05 | 0.05 | 84 | 1010.8 |
| 20260510013017 | 59 | 334 | 0.9 | 0.9 | 0.00 | 0.05 | 0.05 | 85 | 1010.8 |
| 20260510012516 | 59 | 337 | 0.0 | 0.9 | 0.00 | 0.05 | 0.05 | 86 | 1010.9 |
| 20260510012012 | 59 | 84 | 0.0 | 0.0 | 0.00 | 0.05 | 0.05 | 87 | 1010.7 |
| 20260510011507 | 59 | 49 | 0.0 | 0.0 | 0.00 | 0.05 | 0.05 | 86 | 1010.5 |
| 20260510011003 | 59 | 49 | 0.0 | 0.0 | 0.00 | 0.05 | 0.05 | 85 | 1010.5 |
| 20260510010500 | 59 | 87 | 0.0 | 0.0 | 0.00 | 0.05 | 0.05 | 85 | 1010.6 |
| 20260510005957 | 60 | 87 | 0.0 | 0.0 | 0.00 | 0.05 | 0.05 | 84 | 1010.6 |
| 20260510005453 | 60 | 89 | 0.0 | 0.0 | 0.00 | 0.05 | 0.05 | 83 | 1010.4 |
| 20260510004950 | 60 | 95 | 0.0 | 0.0 | 0.00 | 0.05 | 0.05 | 83 | 1010.5 |
| 20260510004447 | 61 | 90 | 0.0 | 0.0 | 0.00 | 0.05 | 0.05 | 82 | 1010.4 |
| 20260510003945 | 61 | 36 | 0.0 | 0.0 | 0.00 | 0.05 | 0.05 | 82 | 1010.2 |
| 20260510003442 | 61 | 37 | 0.0 | 0.0 | 0.00 | 0.05 | 0.05 | 81 | 1010.4 |
| 20260510002942 | 62 | 36 | 0.0 | 0.0 | 0.00 | 0.05 | 0.05 | 80 | 1010.1 |
| 20260510002438 | 62 | 19 | 0.0 | 0.0 | 0.00 | 0.05 | 0.05 | 78 | 1010.3 |
| 20260510001935 | 63 | 19 | 0.0 | 0.0 | 0.00 | 0.05 | 0.05 | 77 | 1010.3 |
| 20260510001433 | 64 | 19 | 0.0 | 0.0 | 0.00 | 0.05 | 0.05 | 76 | 1010.2 |
| 20260510000930 | 65 | 19 | 0.0 | 0.0 | 0.00 | 0.05 | 0.05 | 75 | 1010.1 |
| 20260510000426 | 65 | 19 | 0.0 | 0.0 | 0.00 | 0.05 | 0.05 | 74 | 1010.0 |
| 20260509235923 | 66 | 19 | 0.0 | 0.0 | 0.00 | 0.05 | 0.05 | 73 | 1010.0 |
| 20260509235420 | 66 | 16 | 0.0 | 0.0 | 0.00 | 0.05 | 0.05 | 73 | 1010.0 |
| 20260509234916 | 66 | 53 | 0.0 | 0.0 | 0.00 | 0.05 | 0.05 | 72 | 1009.8 |
| 20260509234413 | 66 | 57 | 0.0 | 0.0 | 0.00 | 0.05 | 0.05 | 71 | 1009.8 |
| 20260509233911 | 67 | 117 | 0.9 | 0.9 | 0.00 | 0.05 | 0.05 | 70 | 1009.9 |
| 20260509233403 | 67 | 188 | 0.9 | 0.9 | 0.00 | 0.05 | 0.05 | 69 | 1009.9 |
| 20260509232858 | 67 | 100 | 0.0 | 0.0 | 0.00 | 0.05 | 0.05 | 69 | 1009.8 |
| 20260509232357 | 68 | 170 | 0.0 | 0.9 | 0.00 | 0.05 | 0.05 | 68 | 1009.8 |
| 20260509231852 | 68 | 174 | 1.7 | 2.6 | 0.00 | 0.05 | 0.05 | 66 | 1009.7 |
| 20260509231349 | 68 | 112 | 0.0 | 0.0 | 0.00 | 0.05 | 0.05 | 66 | 1009.5 |
| 20260509230847 | 69 | 72 | 0.0 | 0.0 | 0.00 | 0.05 | 0.05 | 65 | 1009.6 |
| 20260509230344 | 69 | 86 | 0.0 | 0.0 | 0.00 | 0.05 | 0.05 | 65 | 1009.5 |
| 20260509225839 | 69 | 58 | 0.0 | 0.0 | 0.00 | 0.05 | 0.05 | 65 | 1009.6 |
| 20260509225337 | 69 | 43 | 0.0 | 0.0 | 0.00 | 0.05 | 0.05 | 65 | 1009.8 |
| 20260509224832 | 69 | 135 | 0.9 | 1.7 | 0.00 | 0.05 | 0.05 | 65 | 1009.5 |
| 20260509224328 | 69 | 149 | 0.9 | 0.9 | 0.00 | 0.05 | 0.05 | 64 | 1009.5 |
| 20260509223825 | 69 | 87 | 0.9 | 1.7 | 0.00 | 0.05 | 0.05 | 64 | 1009.8 |
| 20260509223322 | 69 | 162 | 0.9 | 0.9 | 0.00 | 0.05 | 0.05 | 65 | 1009.7 |
| 20260509222819 | 69 | 310 | 0.9 | 1.7 | 0.00 | 0.05 | 0.05 | 65 | 1009.6 |
| 20260509222315 | 69 | 57 | 0.0 | 0.0 | 0.00 | 0.05 | 0.05 | 66 | 1009.8 |
| 20260509221810 | 68 | 347 | 0.0 | 0.0 | 0.00 | 0.05 | 0.05 | 65 | 1009.6 |
| 20260509221308 | 68 | 85 | 0.9 | 0.9 | 0.00 | 0.05 | 0.05 | 65 | 1009.5 |
| 20260509220808 | 68 | 107 | 0.9 | 0.9 | 0.00 | 0.05 | 0.05 | 65 | 1009.8 |
| 20260509220304 | 69 | 92 | 0.9 | 0.9 | 0.00 | 0.05 | 0.05 | 66 | 1009.6 |
| 20260509215800 | 69 | 114 | 0.9 | 1.7 | 0.00 | 0.05 | 0.05 | 65 | 1009.6 |
| 20260509215256 | 69 | 92 | 2.6 | 3.5 | 0.00 | 0.05 | 0.05 | 64 | 1009.7 |
| 20260509214754 | 69 | 113 | 0.9 | 2.6 | 0.00 | 0.05 | 0.05 | 63 | 1009.8 |
| 20260509214250 | 70 | 142 | 1.7 | 2.6 | 0.00 | 0.05 | 0.05 | 63 | 1009.8 |
| 20260509213748 | 70 | 142 | 1.7 | 1.7 | 0.00 | 0.05 | 0.05 | 62 | 1009.8 |
| 20260509213243 | 70 | 309 | 0.9 | 1.7 | 0.00 | 0.05 | 0.05 | 62 | 1009.8 |
| 20260509212741 | 70 | 147 | 1.7 | 1.7 | 0.00 | 0.05 | 0.05 | 62 | 1009.7 |
| 20260509212238 | 70 | 179 | 0.0 | 0.9 | 0.00 | 0.05 | 0.05 | 65 | 1009.8 |
| 20260509211733 | 71 | 76 | 0.0 | 0.0 | 0.00 | 0.05 | 0.05 | 63 | 1009.7 |
| 20260509211230 | 71 | 83 | 0.9 | 1.7 | 0.00 | 0.05 | 0.05 | 63 | 1009.8 |
| 20260509210727 | 71 | 347 | 0.9 | 1.7 | 0.00 | 0.05 | 0.05 | 61 | 1009.6 |
| 20260509210225 | 71 | 148 | 0.9 | 0.9 | 0.00 | 0.05 | 0.05 | 62 | 1009.6 |
| 20260509205724 | 70 | 105 | 0.0 | 0.0 | 0.00 | 0.05 | 0.05 | 63 | 1009.6 |
| 20260509205224 | 70 | 333 | 0.9 | 0.9 | 0.00 | 0.05 | 0.05 | 63 | 1009.7 |
| 20260509204720 | 70 | 335 | 1.7 | 2.6 | 0.00 | 0.05 | 0.05 | 63 | 1009.5 |
| 20260509204217 | 69 | 352 | 1.7 | 2.6 | 0.00 | 0.05 | 0.05 | 64 | 1009.4 |
| 20260509203713 | 69 | 321 | 1.7 | 2.6 | 0.00 | 0.05 | 0.05 | 66 | 1009.5 |
| 20260509203211 | 70 | 338 | 0.9 | 1.7 | 0.00 | 0.05 | 0.05 | 65 | 1009.5 |
| 20260509202706 | 69 | 3 | 0.9 | 0.9 | 0.00 | 0.05 | 0.05 | 67 | 1009.5 |
| 20260509202201 | 68 | 160 | 0.0 | 0.9 | 0.00 | 0.05 | 0.05 | 70 | 1009.6 |
| 20260509201657 | 68 | 7 | 1.7 | 1.7 | 0.00 | 0.05 | 0.05 | 68 | 1009.8 |
| 20260509201154 | 69 | 48 | 0.9 | 1.7 | 0.00 | 0.05 | 0.05 | 68 | 1009.9 |
| 20260509200650 | 69 | 159 | 2.6 | 2.6 | 0.00 | 0.05 | 0.05 | 69 | 1010.0 |
| 20260509200145 | 68 | 126 | 0.9 | 0.9 | 0.00 | 0.05 | 0.05 | 69 | 1010.0 |
| 20260509195642 | 68 | 137 | 0.0 | 0.0 | 0.00 | 0.05 | 0.05 | 71 | 1010.1 |
| 20260509195137 | 68 | 23 | 0.9 | 1.7 | 0.00 | 0.05 | 0.05 | 70 | 1010.3 |
| 20260509194636 | 68 | 77 | 1.7 | 1.7 | 0.00 | 0.05 | 0.05 | 71 | 1010.3 |
| 20260509194134 | 68 | 312 | 1.7 | 2.6 | 0.00 | 0.05 | 0.05 | 71 | 1010.3 |
| 20260509193630 | 68 | 108 | 1.7 | 2.6 | 0.00 | 0.05 | 0.05 | 71 | 1010.3 |
| 20260509193125 | 66 | 318 | 0.0 | 0.0 | 0.00 | 0.05 | 0.05 | 72 | 1010.5 |
| 20260509192622 | 66 | 0 | 0.0 | 0.9 | 0.00 | 0.05 | 0.05 | 71 | 1010.6 |
| 20260509192117 | 66 | 311 | 0.9 | 0.9 | 0.00 | 0.05 | 0.05 | 72 | 1010.6 |
| 20260509191612 | 66 | 21 | 0.0 | 0.9 | 0.00 | 0.05 | 0.05 | 77 | 1010.5 |
| 20260509191109 | 65 | 14 | 0.9 | 0.9 | 0.00 | 0.05 | 0.05 | 79 | 1010.6 |
| 20260509190606 | 65 | 77 | 2.6 | 2.6 | 0.00 | 0.05 | 0.05 | 78 | 1010.6 |
| 20260509185600 | 65 | 28 | 0.0 | 0.0 | 0.00 | 0.05 | 0.05 | 84 | 1010.7 |
| 20260509185056 | 64 | 94 | 0.0 | 0.0 | 0.12 | 0.05 | 0.05 | 83 | 1010.7 |
| 20260509184555 | 63 | 38 | 0.0 | 0.0 | 0.24 | 0.05 | 0.05 | 80 | 1011.0 |
| 20260509184051 | 64 | 13 | 0.0 | 0.0 | 0.19 | 0.03 | 0.03 | 77 | 1011.2 |
| 20260509183546 | 66 | 26 | 0.0 | 0.0 | 0.07 | 0.01 | 0.01 | 73 | 1011.2 |
| 20260509183042 | 67 | 171 | 0.0 | 0.0 | 0.00 | 0.00 | 0.00 | 67 | 1011.2 |
| 20260509182539 | 68 | 195 | 0.0 | 0.9 | 0.00 | 0.00 | 0.00 | 61 | 1010.9 |
| 20260509182036 | 68 | 350 | 0.0 | 0.0 | 0.00 | 0.00 | 0.00 | 61 | 1010.9 |
| 20260509181534 | 68 | 91 | 0.0 | 0.0 | 0.00 | 0.00 | 0.00 | 63 | 1011.0 |
| 20260509181031 | 68 | 35 | 0.0 | 0.0 | 0.00 | 0.00 | 0.00 | 60 | 1011.3 |
| 20260509180526 | 68 | 324 | 0.0 | 0.9 | 0.00 | 0.00 | 0.00 | 58 | 1011.4 |
| 20260509180025 | 68 | 331 | 0.0 | 0.0 | 0.00 | 0.00 | 0.00 | 61 | 1011.3 |
| 20260509175519 | 69 | 187 | 0.9 | 0.9 | 0.00 | 0.00 | 0.00 | 61 | 1011.4 |
| 20260509175016 | 69 | 313 | 0.0 | 0.9 | 0.00 | 0.00 | 0.00 | 59 | 1011.3 |
| 20260509174513 | 69 | 346 | 0.0 | 0.9 | 0.00 | 0.00 | 0.00 | 57 | 1011.2 |
| 20260509174008 | 69 | 349 | 0.0 | 0.0 | 0.00 | 0.00 | 0.00 | 60 | 1011.3 |
| 20260509173503 | 68 | 105 | 0.0 | 0.9 | 0.00 | 0.00 | 0.00 | 58 | 1011.3 |
| 20260509172959 | 68 | 322 | 0.0 | 0.9 | 0.00 | 0.00 | 0.00 | 60 | 1011.3 |
| 20260509172457 | 68 | 216 | 0.0 | 0.9 | 0.00 | 0.00 | 0.00 | 61 | 1011.5 |
| 20260509171952 | 67 | 166 | 0.0 | 0.0 | 0.00 | 0.00 | 0.00 | 63 | 1011.6 |
| 20260509171448 | 66 | 339 | 0.9 | 1.7 | 0.00 | 0.00 | 0.00 | 62 | 1011.4 |
| 20260509170945 | 66 | 147 | 0.9 | 0.9 | 0.00 | 0.00 | 0.00 | 62 | 1011.7 |
| 20260509170440 | 66 | 38 | 0.0 | 0.0 | 0.00 | 0.00 | 0.00 | 63 | 1011.7 |
| 20260509165937 | 66 | 0 | 0.0 | 0.9 | 0.00 | 0.00 | 0.00 | 62 | 1011.7 |
| 20260509165436 | 67 | 19 | 0.0 | 0.0 | 0.00 | 0.00 | 0.00 | 61 | 1011.7 |
| 20260509164932 | 67 | 104 | 0.0 | 0.0 | 0.00 | 0.00 | 0.00 | 62 | 1011.6 |
| 20260509164428 | 67 | 14 | 0.0 | 0.0 | 0.00 | 0.00 | 0.00 | 61 | 1011.7 |
| 20260509163924 | 68 | 8 | 0.0 | 0.0 | 0.00 | 0.00 | 0.00 | 60 | 1011.6 |
| 20260509163422 | 68 | 4 | 0.0 | 0.0 | 0.00 | 0.00 | 0.00 | 59 | 1011.6 |
| 20260509162920 | 69 | 346 | 0.9 | 0.9 | 0.00 | 0.00 | 0.00 | 60 | 1011.5 |
| 20260509162419 | 70 | 235 | 0.9 | 0.9 | 0.00 | 0.00 | 0.00 | 57 | 1011.7 |
| 20260509161915 | 70 | 9 | 0.0 | 0.0 | 0.00 | 0.00 | 0.00 | 57 | 1011.6 |
| 20260509161411 | 69 | 16 | 0.0 | 0.9 | 0.00 | 0.00 | 0.00 | 60 | 1011.8 |
| 20260509160907 | 69 | 140 | 0.9 | 0.9 | 0.00 | 0.00 | 0.00 | 57 | 1011.5 |
| 20260509160408 | 69 | 346 | 0.0 | 0.0 | 0.00 | 0.00 | 0.00 | 59 | 1011.8 |
| 20260509155903 | 68 | 165 | 0.9 | 0.9 | 0.00 | 0.00 | 0.00 | 57 | 1011.9 |
| 20260509155400 | 68 | 190 | 0.0 | 0.9 | 0.00 | 0.00 | 0.00 | 60 | 1012.0 |
| 20260509154856 | 69 | 330 | 0.9 | 0.9 | 0.00 | 0.00 | 0.00 | 57 | 1011.9 |
| 20260509154353 | 71 | 289 | 0.9 | 0.9 | 0.00 | 0.00 | 0.00 | 55 | 1011.9 |
| 20260509153850 | 71 | 27 | 0.0 | 0.9 | 0.00 | 0.00 | 0.00 | 54 | 1012.0 |
| 20260509153347 | 70 | 126 | 0.9 | 0.9 | 0.00 | 0.00 | 0.00 | 58 | 1011.9 |
| 20260509152844 | 69 | 149 | 0.0 | 0.9 | 0.00 | 0.00 | 0.00 | 59 | 1012.1 |
| 20260509152339 | 68 | 48 | 0.0 | 0.0 | 0.00 | 0.00 | 0.00 | 58 | 1012.1 |
| 20260509151837 | 68 | 95 | 0.9 | 1.7 | 0.00 | 0.00 | 0.00 | 56 | 1012.2 |
| 20260509151333 | 67 | 347 | 0.0 | 0.0 | 0.00 | 0.00 | 0.00 | 62 | 1012.2 |
| 20260509150832 | 66 | 359 | 0.0 | 0.9 | 0.00 | 0.00 | 0.00 | 60 | 1012.4 |
| 20260509150329 | 66 | 8 | 0.0 | 0.0 | 0.00 | 0.00 | 0.00 | 59 | 1012.6 |
| 20260509145826 | 66 | 325 | 0.9 | 0.9 | 0.00 | 0.00 | 0.00 | 63 | 1012.5 |
| 20260509145321 | 65 | 78 | 0.0 | 0.0 | 0.00 | 0.00 | 0.00 | 63 | 1012.6 |
| 20260509144818 | 64 | 144 | 0.0 | 0.9 | 0.00 | 0.00 | 0.00 | 63 | 1012.8 |
| 20260509144315 | 64 | 322 | 0.9 | 0.9 | 0.00 | 0.00 | 0.00 | 61 | 1012.8 |
| 20260509143812 | 64 | 58 | 0.0 | 0.0 | 0.00 | 0.00 | 0.00 | 65 | 1012.8 |
| 20260509143309 | 63 | 329 | 0.0 | 0.0 | 0.00 | 0.00 | 0.00 | 64 | 1012.8 |
| 20260509142805 | 63 | 353 | 0.0 | 0.0 | 0.00 | 0.00 | 0.00 | 64 | 1012.7 |
| 20260509142301 | 63 | 350 | 0.0 | 0.0 | 0.00 | 0.00 | 0.00 | 62 | 1012.7 |
| 20260509141756 | 63 | 202 | 0.9 | 0.9 | 0.00 | 0.00 | 0.00 | 64 | 1012.7 |
| 20260509141254 | 63 | 319 | 0.0 | 0.0 | 0.00 | 0.00 | 0.00 | 64 | 1012.7 |
| 20260509140750 | 63 | 343 | 0.9 | 0.9 | 0.00 | 0.00 | 0.00 | 63 | 1012.7 |
| 20260509140248 | 63 | 70 | 0.0 | 0.0 | 0.00 | 0.00 | 0.00 | 63 | 1012.8 |
| 20260509135745 | 63 | 11 | 0.0 | 0.0 | 0.00 | 0.00 | 0.00 | 63 | 1012.7 |
| 20260509135243 | 63 | 276 | 0.9 | 0.9 | 0.00 | 0.00 | 0.00 | 64 | 1012.8 |
| 20260509134740 | 63 | 359 | 0.0 | 0.0 | 0.00 | 0.00 | 0.00 | 62 | 1012.7 |
| 20260509134237 | 62 | 19 | 0.0 | 0.0 | 0.00 | 0.00 | 0.00 | 66 | 1012.7 |
| 20260509133734 | 62 | 41 | 0.0 | 0.0 | 0.00 | 0.00 | 0.00 | 64 | 1012.8 |
| 20260509133231 | 62 | 72 | 0.0 | 0.0 | 0.00 | 0.00 | 0.00 | 64 | 1012.8 |
| 20260509132730 | 62 | 342 | 0.9 | 0.9 | 0.00 | 0.00 | 0.00 | 63 | 1012.7 |
| 20260509132228 | 62 | 320 | 0.0 | 0.0 | 0.00 | 0.00 | 0.00 | 64 | 1012.8 |
| 20260509131724 | 62 | 75 | 0.9 | 0.9 | 0.00 | 0.00 | 0.00 | 64 | 1012.6 |
| 20260509131221 | 62 | 325 | 0.0 | 0.0 | 0.00 | 0.00 | 0.00 | 63 | 1012.7 |
| 20260509130717 | 63 | 98 | 0.9 | 0.9 | 0.00 | 0.00 | 0.00 | 62 | 1012.8 |
| 20260509130213 | 64 | 322 | 0.0 | 0.0 | 0.00 | 0.00 | 0.00 | 63 | 1012.6 |
| 20260509125710 | 64 | 326 | 0.0 | 0.0 | 0.00 | 0.00 | 0.00 | 63 | 1012.3 |
| 20260509125206 | 63 | 153 | 0.0 | 0.9 | 0.00 | 0.00 | 0.00 | 64 | 1012.6 |
| 20260509124703 | 62 | 145 | 0.0 | 0.0 | 0.00 | 0.00 | 0.00 | 63 | 1012.5 |
| 20260509124159 | 62 | 351 | 0.9 | 1.7 | 0.00 | 0.00 | 0.00 | 64 | 1012.3 |
| 20260509123658 | 62 | 358 | 0.9 | 1.7 | 0.00 | 0.00 | 0.00 | 64 | 1012.5 |
| 20260509123154 | 60 | 117 | 0.9 | 0.9 | 0.00 | 0.00 | 0.00 | 66 | 1012.5 |
| 20260509122650 | 60 | 191 | 0.9 | 0.9 | 0.00 | 0.00 | 0.00 | 67 | 1012.5 |
| 20260509122147 | 60 | 250 | 0.9 | 0.9 | 0.00 | 0.00 | 0.00 | 66 | 1012.5 |
| 20260509121643 | 59 | 222 | 0.0 | 0.0 | 0.00 | 0.00 | 0.00 | 66 | 1012.4 |
| 20260509121142 | 59 | 129 | 0.0 | 0.9 | 0.00 | 0.00 | 0.00 | 66 | 1012.5 |
| 20260509120640 | 59 | 234 | 2.6 | 5.2 | 0.00 | 0.00 | 0.00 | 65 | 1012.6 |